RH
3 3 3 3 3 3 3 3 3 3 3 3 3 3 4 5 3 13 28 21 15 16 18 19 12 8 8 11 12 10 10 16 23 29 31 31 34 53 63 49 48 53 47 37 28 23 18 15 11 8 8 10 12 13 14 13 12 11 12 13 13 14 12 9 7 6 7 9 11 12 17 30 52 68 70 66 62 61 63 62 57 50 44 37 27 21 18 16 14 12 11 11 12 14 16 17 18
3 3 3 3 3 3 4 2 4 3 3 4 3 4 4 6 12 24 29 27 26 14 11 11 8 10 6 6 7 7 9 12 23 28 29 28 25 35 53 56 49 44 40 35 28 19 12 8 7 7 7 10 13 13 13 12 12 13 13 14 13 12 10 7 6 7 9 10 12 12 15 19 34 61 76 73 67 64 65 65 59 53 48 41 32 24 21 17 15 12 11 11 12 14 15 18 19
3 4 3 3 3 3 4 3 3 3 4 3 3 6 4 14 28 32 28 28 26 8 4 5 8 13 6 7 6 8 10 9 17 21 27 27 20 25 36 39 30 23 21 18 16 11 7 6 6 8 10 12 12 12 12 12 12 14 14 13 12 10 8 6 6 10 14 15 15 14 15 17 27 54 78 79 71 65 64 65 59 54 50 44 36 29 25 19 15 12 11 11 11 13 14 18 20
4 3 3 3 3 3 3 3 3 3 4 2 10 19 14 21 30 32 28 18 11 4 5 6 8 8 7 10 6 24 38 31 32 29 30 30 28 28 27 25 21 19 14 10 9 7 6 6 8 9 12 13 12 12 11 12 13 13 13 12 11 10 8 6 7 14 22 24 21 18 17 21 34 63 85 83 75 66 64 66 60 55 51 47 42 34 28 21 17 13 11 11 11 12 14 16 20
4 4 4 3 3 4 3 3 3 3 4 2 16 29 22 24 30 32 23 8 5 5 7 7 5 4 13 20 16 41 57 47 47 43 39 38 34 31 26 23 21 17 12 8 7 6 6 7 9 11 13 12 11 11 11 12 13 13 12 12 11 10 8 7 9 15 25 31 28 24 24 27 44 78 94 86 77 69 66 67 66 61 55 52 48 38 30 23 17 14 11 11 11 11 13 15 20
4 4 4 4 4 3 3 3 3 3 4 2 16 30 24 25 31 26 14 5 6 6 8 8 5 7 18 25 28 47 56 51 56 57 55 49 41 36 28 19 14 10 7 7 7 6 7 8 10 11 11 11 11 11 13 13 13 13 13 12 11 9 8 9 10 13 19 31 37 33 33 36 49 81 97 91 79 71 68 69 70 67 61 55 49 39 30 24 18 15 13 12 11 11 12 15 20
4 5 4 4 4 4 4 3 3 3 4 5 14 28 28 27 25 13 7 6 8 8 9 8 5 10 20 28 36 47 52 52 54 55 55 48 41 32 19 11 6 5 6 6 6 6 8 10 10 10 9 10 12 13 13 14 15 14 13 13 12 12 11 10 11 12 14 26 41 43 43 46 56 82 98 90 75 70 71 70 71 70 66 59 50 41 31 25 20 17 15 14 13 11 13 17 22
5 4 5 4 4 4 4 3 4 3 5 9 18 28 24 20 16 10 10 10 11 10 9 8 5 9 21 35 48 52 53 57 55 48 45 39 29 18 10 8 6 6 6 5 5 8 9 9 8 8 10 11 13 15 16 17 18 17 16 17 17 15 12 10 11 10 12 23 41 50 56 60 67 80 86 79 71 72 73 70 70 70 69 64 53 44 35 27 22 20 17 16 15 13 14 19 24
5 5 5 5 5 4 4 4 4 4 6 10 22 29 20 11 8 10 12 11 12 9 11 10 3 8 18 38 55 55 55 62 63 54 45 38 25 16 12 10 9 7 5 5 6 8 8 7 9 9 11 13 15 19 22 22 21 20 19 21 19 14 12 10 10 11 14 24 41 57 68 74 77 81 80 75 76 77 75 72 70 70 72 65 53 45 38 30 24 22 21 19 18 17 17 20 25
5 5 5 4 5 4 4 4 3 5 8 13 25 30 19 9 5 7 7 8 10 7 17 17 11 14 11 30 51 50 52 60 64 58 48 40 27 18 14 12 9 7 5 5 6 7 7 8 9 10 11 13 19 24 25 23 20 19 20 20 16 13 12 10 11 13 17 25 44 64 76 84 87 91 88 80 80 80 78 75 70 72 71 61 51 47 41 34 27 23 23 23 22 21 19 20 22
5 5 5 5 5 5 5 5 5 8 11 18 31 28 12 6 3 4 5 8 10 4 11 13 20 32 17 24 43 47 54 60 64 60 51 42 29 18 13 10 6 5 5 5 6 7 8 9 10 11 14 16 20 24 23 19 17 19 22 21 17 16 15 13 13 14 18 27 50 76 85 92 99 100 96 88 84 82 79 76 74 75 68 57 52 48 43 38 31 25 24 25 25 24 23 21 21
6 6 5 5 5 5 6 4 13 24 21 23 31 24 8 5 3 5 6 4 6 4 11 16 24 33 22 28 43 49 57 61 65 61 53 43 27 16 8 5 4 4 4 5 7 8 9 10 12 13 15 20 21 24 24 20 23 30 34 33 30 28 25 20 17 15 20 32 61 88 94 96 98 96 94 93 91 86 82 79 80 77 66 59 55 50 47 42 34 28 26 26 26 26 25 24 23
6 6 5 6 6 6 6 6 26 38 27 26 30 24 9 4 6 6 5 4 7 2 15 29 19 16 20 33 45 51 60 62 63 58 50 38 20 10 5 5 5 6 9 9 8 9 12 12 14 16 18 22 23 31 40 40 44 49 51 50 46 44 37 28 25 20 22 44 74 92 96 95 92 94 91 89 95 94 90 87 86 81 73 68 63 60 58 50 40 31 28 26 25 25 26 26 25
6 7 6 6 6 6 6 8 30 37 26 27 27 22 11 6 7 5 4 5 4 2 31 49 15 7 27 38 50 62 69 66 62 57 45 28 13 8 7 7 11 16 18 14 14 14 15 20 24 25 28 30 30 43 60 61 56 58 60 58 54 51 48 42 36 28 28 50 72 79 91 98 96 99 94 88 94 98 97 94 91 87 83 79 75 71 64 53 41 33 29 26 24 24 24 25 26
7 7 6 6 6 6 8 10 25 31 29 32 27 23 13 8 6 4 7 2 10 23 51 64 25 12 29 43 67 79 72 65 62 56 39 22 11 11 9 10 19 25 21 19 23 21 17 24 30 28 28 33 41 57 66 61 54 59 63 60 58 58 58 54 45 38 37 43 49 57 79 96 95 93 93 93 96 99 99 97 95 93 89 84 78 71 60 49 39 33 30 25 23 23 23 24 25
7 7 6 6 6 6 9 13 24 30 31 29 25 27 16 11 7 5 7 2 28 49 46 48 36 31 41 56 79 83 78 72 64 51 34 24 17 13 9 12 28 36 33 33 28 23 22 27 33 30 26 34 55 69 63 56 52 55 65 67 66 65 64 63 59 53 46 41 42 50 69 86 90 92 96 99 98 98 99 99 97 93 88 82 75 66 56 46 39 35 30 25 23 22 22 22 23
8 7 7 6 6 9 12 20 33 32 32 30 24 24 16 14 11 7 7 2 20 42 41 37 35 45 63 77 80 79 83 76 59 44 29 23 14 7 8 12 34 49 49 48 38 32 38 45 50 44 39 48 64 71 62 56 49 45 59 66 66 69 72 75 72 62 56 59 65 70 82 91 96 99 100 100 100 99 99 99 94 87 83 79 73 64 55 48 42 36 31 28 24 23 24 22 22
9 8 7 7 7 10 16 30 41 34 36 40 28 15 11 17 15 7 7 3 6 26 41 38 40 56 74 86 83 78 78 66 52 40 23 14 5 8 25 34 46 60 58 53 50 51 58 65 70 62 55 59 62 64 61 58 53 50 57 61 66 74 75 75 69 64 71 83 90 94 95 96 98 100 100 101 99 95 95 94 89 85 83 79 72 65 59 53 46 40 34 30 26 24 25 26 25
10 9 8 8 8 12 26 40 43 39 40 38 25 11 12 18 16 15 12 6 13 32 40 39 52 65 73 83 80 72 63 53 44 29 12 7 13 29 49 53 56 69 67 55 54 64 69 68 73 70 61 58 59 59 56 55 55 56 56 56 63 65 64 67 67 73 86 96 100 98 92 92 98 100 101 101 95 91 93 91 86 83 80 77 73 70 65 62 55 46 37 32 29 26 25 28 29
11 11 8 9 9 14 35 49 47 44 39 30 22 12 14 15 12 20 18 12 23 39 43 49 66 69 66 69 69 66 55 42 29 14 7 12 31 52 62 66 70 75 70 58 56 60 62 64 73 78 69 62 65 61 52 50 49 48 45 49 59 60 62 66 70 83 93 96 94 89 90 96 101 101 99 96 93 93 91 85 79 76 73 71 73 74 71 66 59 50 45 41 35 28 26 28 30
13 12 9 12 12 19 40 53 50 43 34 27 18 10 15 14 8 12 13 21 36 46 50 55 71 78 69 62 60 56 46 34 16 6 10 19 43 56 56 68 72 67 64 63 60 52 47 54 65 73 72 69 70 64 57 51 44 46 49 50 53 51 60 69 79 92 94 95 96 94 97 102 99 96 94 91 91 88 81 76 72 68 66 67 71 72 66 62 60 59 56 51 42 36 38 35 32
14 12 12 13 13 29 49 57 51 36 27 20 11 12 19 12 7 8 7 24 49 63 65 55 60 74 73 64 56 47 42 35 16 13 15 23 53 64 59 64 61 58 63 62 56 48 40 48 61 68 72 72 65 59 61 57 43 48 55 48 43 55 71 81 90 96 94 95 98 98 97 97 92 89 91 87 83 78 73 69 63 62 63 66 67 64 61 60 64 66 60 55 50 50 53 46 42
15 14 15 14 14 28 46 61 52 23 13 13 11 17 16 9 9 10 9 22 48 74 77 62 57 69 79 73 61 53 47 39 29 31 32 35 57 69 69 66 58 55 54 48 44 40 41 55 62 60 64 67 59 53 60 63 51 45 49 48 58 84 89 82 92 96 92 91 91 91 88 90 90 87 86 77 68 66 65 60 56 60 64 63 60 58 62 64 64 62 56 55 57 59 60 56 59
16 15 16 17 17 18 24 41 36 8 5 12 14 16 9 8 15 15 16 18 33 62 72 66 67 76 87 84 73 62 52 49 39 29 31 41 53 62 68 64 60 58 47 40 35 31 41 53 47 42 50 57 53 55 63 67 59 46 45 54 74 97 90 78 91 94 89 90 89 89 82 84 86 79 73 64 58 57 54 52 56 62 60 53 50 50 55 61 62 56 49 51 60 68 70 71 78
17 16 17 16 18 23 20 19 17 7 8 11 10 13 8 10 23 20 18 22 26 43 59 69 77 79 82 81 73 61 56 60 41 16 18 31 46 58 62 62 67 65 52 44 37 31 39 41 37 43 51 57 59 63 69 66 60 53 46 53 74 93 90 82 90 91 88 92 94 91 80 76 78 72 65 60 57 52 49 50 54 56 53 46 45 47 52 62 65 61 54 55 65 72 75 79 85
18 17 19 17 17 26 24 14 12 9 9 12 10 11 10 12 23 19 17 35 37 34 49 65 77 81 82 72 58 55 61 60 36 13 15 25 35 40 44 56 66 63 52 46 39 35 38 34 39 55 65 78 84 77 72 63 60 60 54 68 88 87 80 80 87 86 81 90 96 85 71 69 78 78 63 54 49 40 41 50 52 52 52 48 45 43 49 61 68 68 63 61 67 72 76 82 82
19 19 20 18 17 20 17 12 12 13 10 12 12 11 13 12 16 16 14 29 33 28 37 50 63 66 72 74 58 57 69 65 41 15 11 20 24 25 31 43 46 46 46 41 35 38 44 43 48 67 80 87 92 85 73 64 67 67 61 76 86 75 76 83 85 80 76 85 81 67 65 68 74 75 55 41 38 33 42 54 54 49 45 43 44 42 46 60 70 73 66 57 66 75 78 84 82
19 21 19 17 18 17 15 14 12 16 14 12 14 12 14 13 13 15 12 18 23 24 26 33 44 39 52 87 81 62 60 55 41 20 10 15 16 18 26 29 26 26 29 29 32 43 52 53 58 75 83 78 79 84 80 71 73 73 64 65 71 75 85 84 78 74 72 72 60 58 71 65 57 59 47 34 32 36 46 49 47 43 33 33 40 42 47 59 68 72 65 55 65 79 81 84 84
19 19 17 16 18 16 15 15 14 17 16 13 15 13 14 14 14 13 12 29 26 12 15 19 25 25 38 71 72 60 54 35 27 28 20 15 16 17 19 21 21 18 17 22 30 44 53 54 57 69 76 72 71 78 81 79 81 82 72 68 77 87 88 79 72 65 58 57 52 56 63 53 50 48 34 26 26 29 30 27 31 32 26 28 35 38 46 54 60 63 61 55 60 72 80 82 81
18 17 17 17 17 17 16 15 16 17 16 16 15 13 15 15 17 11 19 53 45 12 11 11 12 19 25 38 49 63 61 29 21 34 26 17 18 16 14 15 15 15 21 29 32 37 45 47 50 59 67 71 79 84 83 86 93 90 77 74 83 86 82 73 62 51 45 48 49 47 42 38 43 35 19 18 19 18 15 13 20 21 19 28 32 31 40 49 54 59 61 59 57 62 75 81 80
17 17 17 17 16 16 16 16 17 17 18 18 16 15 15 15 18 13 23 50 38 15 13 9 15 21 17 35 56 66 59 33 25 28 19 15 17 14 13 13 12 14 22 31 32 31 35 39 43 52 60 64 81 95 92 89 91 84 73 73 81 77 70 62 55 49 42 39 37 34 28 23 23 19 13 13 11 11 9 8 11 12 15 25 26 23 32 42 47 50 53 59 62 66 77 81 79
17 16 16 15 16 15 15 16 16 17 18 18 17 17 16 17 19 18 29 36 19 18 23 15 24 29 29 51 65 61 55 43 28 20 15 15 15 12 12 12 11 12 18 27 31 30 35 41 40 44 51 55 77 99 98 90 83 79 75 75 80 76 64 56 53 48 38 31 29 26 22 17 15 14 13 11 9 9 7 7 7 8 14 21 21 20 27 35 38 37 38 54 69 75 80 79 77
14 15 16 14 14 14 16 21 24 20 17 20 19 17 17 19 27 32 40 40 21 18 28 26 28 30 37 55 62 60 58 48 29 17 16 15 13 13 12 12 13 14 20 26 30 35 42 44 39 39 41 47 76 99 96 91 85 82 79 74 77 76 66 61 56 48 37 31 30 28 23 18 16 14 13 12 10 9 8 8 7 6 11 17 17 18 25 29 29 27 26 41 63 73 77 74 73
13 13 14 14 15 13 13 26 42 37 27 31 26 16 17 25 41 52 55 51 34 23 26 27 24 27 38 48 54 57 55 48 32 17 14 13 14 14 11 15 22 28 31 26 27 40 45 40 35 33 35 44 74 97 96 94 91 87 81 74 76 74 67 63 58 47 37 33 34 31 25 20 19 18 16 14 12 11 10 9 8 6 8 12 14 19 27 27 23 21 18 26 50 65 70 73 72
15 19 16 11 13 15 16 26 45 47 36 40 39 21 15 31 50 59 59 56 51 43 28 21 26 31 39 41 45 54 51 40 27 17 15 13 14 14 11 15 23 28 32 28 29 37 34 31 30 29 39 51 65 82 91 91 92 94 90 81 78 74 67 62 52 42 38 39 38 33 29 26 24 22 20 18 16 15 12 11 10 8 7 7 11 17 20 19 18 17 13 19 44 61 67 73 71
40 50 49 31 16 16 23 29 37 43 37 38 46 31 15 28 50 58 57 54 65 69 38 28 41 33 30 33 39 53 48 30 23 19 18 16 16 15 13 16 19 19 22 26 32 33 27 29 32 32 42 46 47 59 71 75 77 83 85 81 78 71 64 56 46 42 44 44 40 35 31 27 25 25 23 22 21 20 17 15 13 10 8 6 8 12 11 11 13 13 10 14 32 47 54 60 65
66 71 73 60 39 30 35 37 34 41 42 40 45 40 24 22 37 58 66 52 58 72 47 32 41 28 21 31 40 50 41 28 29 21 15 17 18 17 19 21 20 19 19 20 26 28 31 39 41 37 36 39 47 54 57 61 66 71 76 77 73 66 59 52 47 47 47 44 38 33 30 28 28 27 25 25 24 23 21 17 15 13 11 8 7 7 6 7 8 9 9 10 16 24 32 45 60
56 65 70 67 57 44 44 44 37 42 46 47 53 45 29 22 30 48 63 57 48 57 46 28 29 22 19 35 46 43 34 33 32 18 15 26 27 22 24 24 20 19 19 18 20 22 30 45 51 43 37 43 56 58 54 61 68 71 75 72 66 61 57 52 49 46 44 40 36 32 31 30 28 25 24 23 23 23 21 18 16 14 12 11 9 8 7 6 6 7 8 10 12 14 21 39 54
27 50 63 62 59 47 46 50 46 49 46 49 62 54 31 21 31 43 53 63 51 38 35 25 22 21 19 33 42 33 30 33 28 20 26 37 37 30 27 26 23 21 19 19 23 23 26 41 51 49 44 49 57 58 60 65 69 73 74 69 64 61 55 50 45 41 39 36 33 32 30 27 24 21 20 20 22 23 21 18 16 15 14 13 12 11 10 8 7 6 6 9 14 13 14 27 40
12 33 42 46 58 51 45 50 48 50 50 52 67 74 59 33 36 47 42 57 59 31 20 21 19 21 22 27 30 29 27 23 22 26 29 33 37 36 32 30 27 26 26 27 28 25 26 35 46 52 50 48 51 58 66 68 69 72 71 68 66 61 53 46 41 38 36 34 33 32 29 26 23 19 18 20 23 23 21 18 16 15 15 14 14 14 13 12 11 8 6 8 12 12 11 14 23
11 20 21 28 57 60 48 53 55 52 48 46 51 64 68 57 61 54 26 46 75 44 17 21 20 20 23 21 21 24 22 23 33 38 32 28 30 32 35 36 34 34 34 31 28 30 37 43 46 52 52 49 53 62 70 73 74 72 69 68 66 60 52 44 40 38 35 35 34 31 28 24 20 17 16 17 21 23 21 18 17 16 16 16 17 18 17 16 14 13 10 9 9 10 11 12 15
11 16 15 21 48 63 56 58 65 62 53 48 46 45 48 54 65 55 29 49 69 39 18 23 21 21 21 17 18 17 16 27 39 39 35 34 34 32 34 38 36 36 36 31 36 52 67 66 54 50 52 57 66 69 72 76 76 77 74 66 59 54 48 42 39 38 36 35 33 29 26 22 18 16 14 14 17 21 21 20 18 17 19 22 25 26 25 22 18 17 15 13 12 11 11 12 13
11 12 14 16 34 53 59 64 68 63 57 61 58 45 42 37 32 35 37 43 40 22 22 26 20 22 20 16 20 15 15 27 31 30 37 43 42 35 35 45 46 44 46 46 54 69 79 79 67 59 58 63 70 70 74 76 74 80 80 62 50 48 44 40 37 37 36 34 31 28 24 21 18 16 14 13 13 16 19 21 21 19 21 23 27 29 29 26 23 20 18 16 14 14 13 11 11
8 14 19 16 19 36 59 72 79 74 62 68 64 45 43 37 36 57 60 44 33 24 24 24 19 22 27 26 24 20 23 32 33 34 42 43 40 41 51 67 68 60 63 70 75 75 74 73 71 70 71 71 73 73 77 80 76 80 80 64 53 48 40 37 35 35 36 33 30 26 21 19 18 17 17 16 15 15 15 18 21 22 23 25 26 26 26 25 24 22 21 18 15 14 14 13 12
11 27 45 47 27 24 52 72 83 83 67 73 78 57 45 38 49 80 78 55 42 28 23 25 20 24 38 38 29 34 44 43 43 45 42 35 40 57 69 80 86 79 74 78 80 74 71 72 73 77 83 86 86 82 80 79 73 73 77 74 65 52 41 37 34 33 33 32 27 21 18 18 19 21 21 21 21 20 19 18 18 19 20 23 24 24 24 23 22 22 22 19 17 15 14 14 14
13 23 50 78 59 26 36 59 74 79 64 68 80 67 53 48 53 66 65 60 47 30 30 30 22 23 35 35 25 39 56 50 46 44 36 33 49 70 71 74 91 89 79 78 74 66 65 70 74 77 87 91 86 83 79 77 75 75 79 80 71 57 47 41 35 34 33 29 23 19 20 22 23 25 24 25 26 26 27 26 24 23 22 22 21 19 19 20 21 21 21 19 16 14 14 14 14
16 21 36 66 72 43 27 36 58 74 66 61 69 72 68 65 71 66 56 59 49 37 40 32 25 28 29 30 28 37 50 44 38 35 32 38 54 69 73 80 95 93 86 80 69 60 56 57 61 71 90 93 82 76 72 70 74 77 81 82 77 68 61 50 41 38 34 28 24 24 26 26 26 26 25 24 24 26 30 31 30 29 28 26 24 21 18 19 21 20 18 17 16 14 13 13 13
12 19 28 47 68 63 46 41 54 67 62 49 55 78 81 68 74 76 62 62 56 53 58 42 37 41 32 33 41 44 45 40 37 34 31 42 60 73 82 93 99 94 88 79 68 59 52 57 70 82 92 86 72 66 59 56 60 67 78 86 84 78 71 61 50 41 35 31 31 31 29 27 27 27 26 24 23 27 32 33 33 33 30 28 27 25 24 23 21 20 17 15 14 13 13 13 13
14 16 21 47 76 78 69 66 63 55 40 38 59 86 91 72 68 75 76 76 66 61 67 59 56 55 42 41 47 43 39 39 45 42 38 56 75 81 83 86 88 90 89 86 87 83 75 82 95 95 88 77 73 73 65 57 54 63 81 93 91 83 75 68 55 43 39 39 38 35 31 30 31 29 28 27 28 34 38 38 38 36 33 30 28 28 29 29 27 23 20 15 12 12 11 11 11
13 17 21 46 76 81 77 77 77 66 44 47 65 74 80 75 61 63 73 78 71 63 64 62 61 59 48 45 47 45 43 46 48 45 51 74 83 79 80 81 83 92 94 87 86 86 86 92 90 80 72 64 66 77 80 75 67 71 84 89 90 87 79 71 59 49 48 48 44 39 35 33 28 24 25 28 31 36 39 39 38 36 34 33 33 33 33 34 34 31 26 20 14 11 10 10 10
14 11 29 53 70 74 77 78 83 82 70 72 74 64 75 84 69 62 65 68 71 66 56 49 49 48 41 39 47 49 46 50 53 50 62 87 87 76 82 85 78 78 79 76 75 70 66 68 64 59 54 49 52 64 72 72 68 70 77 81 87 91 87 77 67 60 58 56 52 46 40 31 20 17 20 23 26 31 34 35 36 36 36 37 37 37 38 38 38 37 34 29 23 17 12 10 9
44 14 29 61 73 73 77 77 80 83 80 82 84 76 80 86 80 75 68 62 63 60 56 52 45 41 40 44 53 51 43 48 56 56 66 86 83 70 73 74 65 59 53 54 64 63 54 50 48 49 47 46 52 61 65 67 67 67 70 77 84 88 88 83 75 67 63 61 56 52 45 29 16 15 16 18 21 25 29 33 36 38 38 40 39 38 39 39 39 39 38 36 33 28 22 17 13
72 40 39 65 74 71 75 76 76 79 75 73 76 77 74 72 73 73 68 63 61 58 59 57 45 41 44 47 50 50 44 45 54 63 74 85 83 73 70 63 61 64 58 55 64 63 51 45 43 46 46 41 42 49 58 68 77 78 74 75 81 84 85 86 81 75 73 70 60 53 45 27 15 15 14 15 17 18 23 27 33 39 41 41 40 39 39 38 38 38 38 39 38 36 34 28 23
77 72 64 72 77 74 79 83 77 73 73 72 72 74 78 78 68 59 57 61 65 65 58 50 44 44 45 44 48 53 44 39 55 73 78 75 67 63 66 64 62 64 58 61 79 77 57 47 47 48 47 40 37 46 56 66 77 84 81 80 84 85 83 84 84 80 77 73 63 53 42 24 16 16 14 14 15 17 20 24 30 38 41 42 41 39 38 37 37 37 37 37 37 37 37 35 32
77 96 83 74 82 86 87 87 81 76 77 74 69 70 79 81 67 54 50 49 57 65 56 46 46 52 54 52 55 59 54 56 71 74 66 59 49 45 54 61 63 62 49 51 84 95 72 56 58 64 63 53 48 56 67 73 76 79 83 84 83 82 81 80 82 80 75 70 64 52 35 21 18 17 15 16 17 19 23 26 32 39 40 41 39 38 39 40 41 40 37 34 32 32 33 35 36
68 89 88 77 76 83 88 87 81 83 85 77 73 73 75 74 64 57 54 47 49 53 48 46 53 63 66 58 53 55 59 66 68 59 56 57 49 42 42 40 43 49 39 40 72 86 65 47 49 61 71 69 64 67 73 80 81 78 80 84 85 86 85 82 83 81 77 72 60 43 29 23 21 18 17 20 21 21 23 26 33 39 40 39 38 38 40 40 37 33 28 27 27 30 34 37 39
67 68 72 71 71 79 86 85 79 80 86 84 82 79 74 73 66 59 59 54 49 51 57 66 70 69 67 62 63 66 61 57 55 56 62 62 52 42 34 28 31 34 33 42 62 65 52 45 42 47 57 60 59 61 65 76 85 84 81 84 89 92 90 89 86 78 73 68 53 38 33 29 24 21 20 21 20 21 25 28 30 32 31 28 27 27 26 25 24 22 22 23 27 33 39 42 43
73 70 64 62 76 88 85 83 80 75 77 80 83 82 76 76 72 65 66 63 53 49 55 62 62 61 63 63 61 62 60 58 59 60 59 55 50 40 28 26 26 25 29 40 46 43 41 43 42 42 45 42 39 44 54 68 78 80 77 79 86 90 89 88 82 72 69 65 52 45 42 35 28 25 22 20 19 21 25 25 22 19 17 15 16 17 17 18 17 19 22 25 30 34 37 37 37
Wind_Speed
27 27 28 29 30 30 30 30 30 30 29 30 28 28 25 20 20 15 19 27 35 40 38 37 37 39 36 31 30 28 26 25 25 25 27 28 26 21 18 18 19 21 21 23 23 24 25 26 27 26 26 26 25 25 25 24 25 24 24 24 24 24 25 25 26 26 26 25 24 21 20 18 17 17 17 16 17 16 16 17 17 16 16 15 14 13 12 11 10 10 9 10 10 9 9 9 9
26 26 27 28 29 30 30 30 29 30 29 28 26 24 21 18 15 12 21 26 31 38 37 40 38 35 34 31 33 29 27 28 26 26 28 27 27 24 22 21 21 22 23 24 25 26 27 27 27 27 27 26 26 26 25 25 25 24 23 23 24 24 25 26 26 26 26 25 24 23 21 20 18 17 18 17 17 17 16 16 17 16 16 16 15 14 13 12 11 10 9 10 10 10 10 10 9
26 26 26 27 28 29 29 29 29 30 28 27 24 18 14 10 13 20 27 28 34 40 37 39 34 28 29 27 30 31 30 29 27 29 29 28 27 27 26 26 27 27 27 27 27 28 27 27 26 27 27 27 27 26 26 25 24 24 24 23 24 25 25 26 26 25 25 24 24 23 23 21 19 18 18 18 18 18 17 16 16 17 17 16 16 15 13 12 12 10 10 10 10 10 10 10 10
26 25 26 26 27 28 29 29 29 29 28 26 15 9 10 6 17 26 30 35 40 41 38 38 32 27 27 28 31 29 25 23 27 29 29 28 27 27 27 28 29 27 27 27 27 26 26 26 26 27 27 27 27 26 26 25 25 24 24 24 25 25 26 26 26 24 24 24 23 23 23 22 20 18 18 19 19 18 17 17 16 17 17 16 16 15 14 13 12 11 11 10 10 11 11 10 10
26 25 25 26 27 27 27 27 28 27 26 22 6 3 8 10 19 29 37 40 39 40 40 36 32 29 27 29 29 25 23 23 26 27 27 27 27 27 27 27 28 26 26 26 25 25 25 26 26 27 27 27 27 26 26 25 25 24 24 25 26 26 26 26 25 24 23 23 24 24 24 23 21 19 19 19 19 18 17 17 17 18 17 16 15 15 14 13 12 11 11 11 11 11 11 11 10
26 26 25 25 27 25 26 26 27 25 22 18 14 12 10 18 26 36 41 38 38 42 37 31 32 30 27 27 26 26 25 25 25 25 26 25 25 26 25 26 26 26 26 25 24 24 25 26 27 27 27 27 27 27 26 26 26 25 26 26 26 27 27 26 25 24 24 25 25 24 23 22 21 20 20 19 18 18 17 17 18 17 16 15 15 15 14 13 12 11 11 11 11 12 12 11 10
27 26 25 25 26 25 26 26 25 24 19 16 20 19 17 28 35 41 40 37 40 38 30 30 33 30 27 27 27 27 26 26 27 25 26 25 25 25 26 26 25 25 24 24 24 25 26 26 26 26 27 27 27 27 27 27 27 26 27 27 27 27 28 27 26 25 26 26 25 24 23 21 20 20 20 19 19 18 18 18 17 17 16 16 16 15 14 12 12 11 11 11 11 12 11 11 10
27 27 26 25 26 25 25 25 24 24 19 15 19 18 22 36 39 41 40 39 38 30 27 29 31 30 26 27 27 27 26 26 26 26 27 26 27 27 26 25 24 24 23 24 25 26 26 26 26 26 26 27 27 27 28 27 27 27 27 27 27 28 28 27 27 27 27 26 26 25 23 21 20 20 20 21 20 19 19 18 17 18 18 17 16 16 14 13 12 12 11 11 11 11 11 10 10
28 27 25 25 25 24 24 24 22 20 18 17 18 19 29 39 39 42 41 36 33 28 27 27 29 30 26 25 26 27 26 24 25 26 26 25 26 26 24 23 22 22 23 24 25 26 26 26 26 26 26 27 28 28 28 27 27 27 27 27 27 27 27 27 27 27 27 26 26 25 23 22 21 21 21 22 22 20 20 19 18 18 18 17 16 15 14 14 12 12 12 11 11 11 11 10 10
28 27 25 25 24 24 23 21 21 17 16 16 13 21 34 38 37 38 36 34 33 30 26 26 28 28 25 25 26 27 26 25 26 26 24 24 24 24 23 22 22 22 24 24 25 25 25 25 25 26 27 27 28 28 27 27 28 28 27 28 27 27 26 26 27 27 27 26 26 25 23 23 23 23 23 24 23 22 21 20 19 18 17 16 15 15 14 14 13 13 12 11 11 10 10 10 11
28 27 25 25 23 22 20 19 18 13 11 11 12 27 36 36 35 28 27 30 31 32 28 27 27 23 22 24 26 27 26 27 26 25 24 23 24 23 22 22 22 23 23 24 23 24 24 25 25 26 27 28 28 27 27 28 28 27 27 28 27 26 26 26 26 27 27 26 26 24 24 23 24 23 24 25 24 23 22 21 20 16 15 15 14 14 14 14 13 13 12 11 11 10 10 11 11
27 26 25 24 23 21 19 18 11 6 12 9 18 33 36 35 32 22 25 29 28 30 26 25 26 21 21 24 25 26 27 27 25 24 24 23 23 22 22 22 23 22 22 22 22 23 24 24 25 26 26 27 26 26 27 27 27 27 27 27 26 25 24 25 25 26 26 26 25 24 24 23 22 22 23 26 25 24 24 23 20 15 14 14 14 13 14 14 13 12 11 11 10 10 11 11 12
27 26 24 23 22 19 19 15 7 4 10 13 26 35 35 33 26 22 28 27 27 28 21 24 27 22 24 25 25 27 26 26 25 25 24 23 22 22 22 21 22 22 21 21 22 22 23 24 24 25 25 25 24 25 26 25 25 26 27 25 23 23 23 24 24 24 24 24 23 24 24 23 22 22 25 26 26 26 25 24 21 18 16 14 14 14 15 15 14 13 11 11 10 11 12 12 12
27 25 25 24 22 20 19 16 10 9 11 16 29 34 36 32 21 23 27 26 28 21 13 23 26 22 24 25 26 27 24 24 25 24 23 21 21 21 20 20 21 21 21 21 22 22 22 23 24 25 26 25 24 24 22 22 24 26 25 22 22 22 22 23 22 23 23 23 24 24 24 24 23 24 26 27 26 27 26 26 24 22 19 15 14 15 15 15 14 13 12 11 11 12 13 13 13
26 26 27 25 24 21 19 18 15 11 11 19 30 33 39 32 22 23 24 24 20 13 13 19 20 21 24 25 26 24 22 24 24 23 21 21 20 19 19 20 21 21 22 21 21 22 22 23 24 26 26 25 23 20 20 22 24 24 22 21 20 20 20 21 20 21 22 23 23 24 24 24 24 25 26 26 26 27 28 27 24 22 18 14 14 14 14 14 14 14 14 13 13 13 14 14 14
26 26 27 25 24 21 19 17 14 14 13 23 30 33 40 34 25 23 24 22 14 14 22 21 19 21 22 23 24 21 21 22 21 21 19 20 19 18 20 20 20 21 21 21 22 22 22 24 25 26 25 23 20 19 21 22 23 22 21 21 19 18 19 20 19 20 22 23 23 23 23 23 23 24 25 26 27 27 26 24 21 19 15 13 13 13 13 14 14 15 15 14 14 14 15 15 15
25 27 27 25 22 18 17 10 7 13 12 22 31 35 40 31 26 23 24 24 20 21 22 22 24 21 20 20 21 21 22 21 19 19 18 19 18 19 20 20 20 21 21 21 22 22 23 25 24 23 23 21 18 18 20 21 23 22 21 21 20 18 18 19 20 20 22 22 22 21 22 23 23 25 27 27 25 23 20 18 17 14 12 12 13 14 14 14 15 16 16 15 15 15 15 16 17
26 27 25 23 21 18 15 8 6 14 13 25 35 39 35 23 26 22 19 23 24 25 22 23 23 20 21 19 19 20 20 19 18 17 18 19 19 20 20 20 21 20 21 21 22 23 23 24 22 23 22 20 18 18 19 21 22 20 20 21 19 17 17 18 20 21 21 21 20 19 21 23 26 27 27 24 21 17 14 13 13 12 12 14 15 15 15 16 17 17 17 16 16 16 17 17 18
25 25 24 22 20 18 14 6 9 17 24 33 39 40 30 22 28 21 16 22 23 25 25 25 24 22 22 19 20 21 19 18 17 17 18 20 20 20 20 21 21 20 20 21 22 23 24 23 22 24 23 20 18 17 19 20 20 19 20 20 18 17 17 18 19 19 20 20 19 17 19 22 24 25 23 20 17 13 11 11 12 12 14 15 16 15 16 17 18 17 17 17 17 17 18 18 19
25 24 24 21 19 20 15 10 20 28 33 37 38 35 24 22 27 18 17 21 22 25 25 25 25 23 22 21 22 21 20 18 17 18 20 22 21 20 21 22 21 20 21 21 23 24 25 24 22 23 20 18 17 18 20 20 20 20 20 18 17 16 16 17 18 17 16 17 17 16 19 22 21 20 19 16 13 11 10 11 12 13 14 15 15 14 15 17 17 17 17 18 19 19 19 19 19
25 24 23 19 19 20 12 15 29 37 38 38 37 26 16 21 24 19 19 20 22 24 24 25 22 21 22 22 23 22 20 18 17 20 23 24 22 22 22 21 21 20 21 22 23 24 25 25 24 21 16 15 16 19 21 20 20 19 18 17 16 15 16 16 16 15 14 16 17 17 18 19 17 15 15 13 13 12 11 11 13 14 15 15 15 15 16 17 17 17 17 18 19 19 19 19 19
24 24 22 19 23 21 12 20 31 39 41 38 33 20 17 26 22 20 22 22 23 21 21 24 22 22 22 23 23 22 21 20 20 23 24 23 21 22 21 22 23 21 22 23 24 24 24 25 22 18 16 17 19 22 21 19 19 17 15 15 14 14 14 14 14 14 13 14 14 13 14 14 12 12 12 11 12 11 10 11 13 14 14 14 15 16 17 16 16 16 16 17 18 20 20 19 19
24 25 22 21 26 28 26 28 34 39 35 29 27 23 26 29 19 19 23 23 23 20 21 23 21 21 21 21 21 20 22 21 22 23 20 18 20 22 22 24 24 22 22 23 25 25 25 23 20 19 20 21 23 24 21 17 17 16 15 13 12 10 11 11 13 13 11 10 9 8 10 11 11 11 11 10 10 11 11 13 13 13 13 13 14 15 15 15 15 15 15 16 18 19 19 17 17
25 25 23 23 29 32 33 32 36 36 24 20 25 27 29 24 17 19 21 22 24 22 21 19 18 18 17 16 15 19 22 21 20 21 18 17 20 22 24 25 24 24 23 23 25 26 24 22 22 21 21 22 24 24 21 18 16 16 14 13 11 10 10 11 11 11 9 9 10 8 8 10 12 12 13 13 11 11 11 12 12 11 11 12 12 13 14 13 14 15 16 16 16 16 16 16 17
26 25 24 26 29 31 32 32 36 34 20 20 26 26 23 17 15 22 20 20 23 24 20 16 17 17 16 16 16 22 26 23 22 21 19 18 20 22 23 22 22 23 23 23 25 25 24 22 21 21 22 22 22 21 20 18 17 15 14 14 13 13 12 11 11 10 9 10 10 9 8 10 13 13 15 15 13 12 11 10 10 10 11 11 11 12 13 12 12 14 15 14 13 13 14 14 16
27 24 24 27 29 31 34 33 36 33 23 24 26 23 22 18 20 25 20 18 23 25 22 19 19 17 17 19 22 26 27 24 23 22 20 19 21 22 23 21 21 23 23 23 24 25 23 20 20 19 18 19 18 18 18 15 15 15 14 12 12 13 12 11 12 12 10 10 10 10 10 10 11 12 14 15 14 13 12 10 9 9 9 9 10 11 11 11 11 12 12 10 10 11 12 13 13
26 24 27 29 31 34 35 33 33 32 26 26 25 22 23 22 25 25 17 18 25 26 25 24 23 20 19 21 23 24 24 22 22 23 20 20 22 23 23 22 22 24 24 24 24 23 21 19 19 16 15 17 18 17 15 12 12 12 13 12 11 11 11 11 12 12 11 11 12 13 12 11 10 11 13 14 12 12 12 11 9 9 9 9 10 11 11 11 9 10 11 9 8 8 10 13 13
26 28 32 32 32 34 34 34 31 30 30 27 24 23 23 24 27 25 18 21 25 24 26 27 26 25 24 21 21 22 23 23 22 23 22 22 24 26 24 22 21 24 26 25 24 20 18 17 18 17 15 17 18 17 14 11 10 10 11 12 12 10 10 10 10 10 11 12 13 13 10 10 10 10 10 12 12 12 12 11 10 9 9 9 9 10 11 11 8 8 10 8 7 7 8 12 13
28 32 32 30 33 34 33 33 29 29 30 28 25 24 24 25 25 22 17 22 27 25 26 28 26 27 28 25 24 25 24 24 24 23 23 24 26 27 25 22 21 23 25 23 20 18 17 16 17 18 15 15 17 17 14 12 11 11 10 11 11 10 10 10 10 12 12 12 13 12 9 9 10 10 10 10 10 11 13 13 12 11 11 10 9 9 10 9 8 7 8 8 7 8 9 11 12
29 32 30 30 33 32 32 30 28 29 30 28 28 25 23 24 22 18 16 20 22 22 26 27 26 28 32 30 26 26 24 24 24 23 24 25 27 28 26 23 22 24 23 19 16 15 15 16 18 19 17 16 16 16 14 13 13 12 11 11 11 12 12 12 12 12 12 11 11 11 9 9 10 11 11 10 10 11 12 13 12 11 11 10 9 8 8 8 8 7 7 7 8 8 9 11 12
29 30 31 31 32 30 30 29 27 28 29 28 28 25 23 23 21 16 19 25 19 15 24 26 24 29 32 29 25 25 24 23 23 24 26 27 27 28 26 24 23 24 21 16 14 13 15 16 18 20 20 18 17 17 14 13 14 13 12 11 11 13 14 13 11 11 11 10 11 10 9 10 11 12 11 10 10 11 12 12 12 11 11 10 9 8 8 7 8 8 8 7 8 8 8 11 13
29 29 31 31 30 29 28 28 28 29 28 28 28 27 24 21 20 15 18 28 23 16 22 24 25 29 28 25 24 25 25 23 24 26 28 27 27 27 27 25 25 23 18 14 13 13 15 16 17 18 18 17 17 17 15 14 15 15 14 13 13 13 14 12 11 11 12 11 10 10 10 10 11 11 11 11 11 11 11 12 12 12 11 11 10 9 8 7 8 8 8 7 6 7 9 10 12
28 29 30 30 29 28 27 25 26 28 27 29 31 28 23 16 13 15 19 28 24 20 23 24 27 29 27 25 23 24 24 23 24 27 27 26 27 27 27 27 25 21 16 13 14 14 14 13 13 13 14 15 16 16 16 16 16 15 15 14 14 14 13 12 12 13 12 11 10 10 10 11 11 11 12 11 11 10 10 11 11 12 11 11 10 9 8 8 7 7 7 7 6 6 8 8 8
26 27 28 28 27 26 25 19 21 28 25 26 31 29 21 13 12 13 19 31 26 20 24 26 28 28 26 26 23 22 23 22 24 26 26 26 27 27 28 26 21 17 15 15 15 15 15 14 12 12 13 14 15 15 15 14 15 15 15 15 15 15 14 14 14 13 12 12 11 12 12 12 12 12 12 12 12 11 10 10 10 10 11 11 10 9 9 8 7 7 6 6 6 6 6 7 6
20 21 23 24 24 25 22 17 19 30 22 19 28 29 20 18 18 12 13 30 27 20 23 23 26 27 26 26 22 22 23 22 24 26 27 27 26 28 27 25 19 15 16 16 16 15 16 17 15 14 14 14 16 16 15 13 13 14 14 16 16 17 17 16 14 12 12 12 12 13 13 13 13 13 13 13 12 12 11 10 9 9 10 11 11 10 10 9 8 7 6 6 6 5 5 6 7
11 13 17 20 21 22 20 17 18 30 25 19 26 26 20 24 23 17 24 31 22 18 20 18 24 26 26 26 22 22 24 23 24 27 28 27 27 27 25 22 20 17 17 17 15 17 19 18 17 16 15 16 18 19 18 17 18 17 17 18 18 19 17 15 13 13 13 12 12 13 13 13 13 13 13 13 13 12 11 10 9 8 9 10 11 11 10 10 9 8 7 6 6 6 6 6 6
16 15 15 19 20 17 17 17 18 28 30 26 26 23 22 26 24 18 27 35 28 24 19 17 25 26 24 27 23 22 24 23 24 28 29 29 28 25 22 21 20 18 18 17 16 18 20 18 18 17 17 17 18 18 18 19 20 20 19 18 19 18 15 13 13 12 12 12 12 13 13 13 13 13 14 14 14 13 12 10 9 8 8 9 10 11 11 11 10 9 8 7 7 6 7 7 6
27 23 18 17 20 15 16 18 19 25 31 24 23 23 24 25 24 20 23 31 35 33 23 20 26 27 25 27 24 22 23 23 24 29 31 29 25 23 22 21 20 19 19 18 17 19 20 19 18 18 17 17 19 19 18 19 20 20 19 18 17 15 13 12 12 11 11 12 12 13 13 13 13 13 14 14 14 13 11 10 9 9 8 8 9 10 11 11 11 10 9 8 8 7 7 7 7
29 26 23 17 18 16 14 16 20 26 32 22 17 20 23 26 24 22 24 24 29 32 28 25 28 27 27 30 28 23 24 25 28 32 30 24 23 23 23 22 21 20 20 19 18 20 21 20 19 18 17 19 21 20 19 20 21 20 20 18 16 14 12 12 11 11 12 12 13 13 12 13 13 13 14 13 12 12 11 10 10 9 8 8 9 9 10 11 12 11 11 9 8 9 9 7 7
24 26 24 19 16 17 17 18 25 33 36 27 19 16 19 23 22 25 28 23 27 29 25 27 31 29 27 32 32 26 26 30 32 32 26 22 24 24 23 24 23 22 21 20 20 22 22 21 20 19 19 20 21 22 20 20 21 22 21 19 17 15 13 13 12 12 13 13 13 13 12 13 13 13 13 13 11 11 10 9 9 9 8 8 8 9 9 10 11 12 12 11 9 9 9 8 7
20 25 26 21 18 15 18 20 25 34 38 35 31 27 23 19 21 30 30 24 26 26 18 21 28 28 28 33 35 30 29 32 31 27 23 24 26 25 25 26 24 23 22 21 22 22 22 20 20 19 20 20 21 22 21 21 22 23 22 20 18 16 14 14 14 14 15 15 14 13 12 12 12 12 12 12 11 10 10 10 9 9 9 8 8 8 9 10 11 12 12 12 10 10 9 8 7
20 22 24 21 20 17 17 20 22 28 33 33 30 31 30 24 23 28 28 26 29 28 23 23 24 27 30 34 37 33 29 31 27 22 23 26 27 27 29 28 25 24 23 22 22 19 17 18 18 19 19 19 20 22 23 23 22 23 23 21 18 18 17 17 17 17 16 15 14 13 12 12 12 12 11 11 11 10 10 10 10 10 10 9 8 8 9 10 11 12 13 12 11 10 9 8 7
20 20 21 21 22 22 21 21 27 29 29 26 21 21 26 28 26 26 27 30 34 33 31 28 25 28 32 35 39 34 29 30 26 22 24 25 27 30 31 28 24 23 22 21 19 15 15 16 16 16 18 19 20 21 23 23 21 22 23 21 19 19 18 17 17 16 16 15 15 13 12 11 11 11 11 10 10 10 9 9 10 10 11 11 11 11 11 11 11 12 13 13 12 12 11 10 8
17 17 18 20 24 25 27 22 22 23 24 24 22 18 20 24 23 21 23 28 32 32 31 29 26 29 34 38 39 34 31 29 24 23 24 25 29 33 31 25 22 21 21 19 16 14 13 14 14 15 18 20 21 20 22 22 19 20 20 16 17 18 17 16 16 16 16 16 15 14 13 11 11 10 11 11 10 11 10 10 10 10 11 12 13 14 14 14 13 13 13 14 14 14 13 12 10
16 16 12 15 24 27 28 25 17 15 17 21 22 21 21 22 21 20 22 24 28 28 27 28 27 30 36 39 38 33 30 26 22 23 25 28 33 33 28 22 18 18 18 17 15 13 11 11 12 15 17 19 18 16 17 16 14 18 15 12 14 16 15 14 15 15 16 15 15 14 13 11 10 10 11 12 12 12 12 12 12 12 12 12 13 14 14 15 14 13 12 13 14 14 13 12 10
17 19 14 14 22 27 30 27 19 15 18 21 21 20 22 21 21 26 26 24 26 25 24 27 27 31 36 36 34 31 27 23 22 25 28 29 31 29 26 22 19 18 15 14 14 12 11 11 10 12 14 12 13 12 12 12 14 18 17 15 12 11 13 14 14 15 15 15 15 14 13 11 11 11 11 12 13 13 13 14 14 14 14 14 14 14 14 14 14 13 12 12 12 13 12 11 11
18 21 19 16 17 23 29 26 19 19 24 25 20 18 20 19 19 25 27 26 26 22 22 25 27 31 32 29 28 27 23 21 23 27 29 29 28 27 26 23 20 15 11 10 11 12 12 13 12 12 12 12 12 10 11 11 13 16 18 18 13 12 13 14 14 14 15 15 14 14 13 12 12 12 12 13 13 13 12 12 12 12 13 13 14 15 14 14 14 14 13 13 12 12 12 12 12
22 22 19 15 14 18 23 24 22 24 28 26 19 17 19 18 19 23 25 24 23 20 22 26 29 30 26 21 23 24 21 20 26 30 30 28 26 24 24 22 18 13 11 12 15 15 15 15 14 13 13 14 14 12 11 10 12 13 16 18 16 15 15 14 15 14 14 15 14 14 13 13 13 14 13 13 12 11 10 9 10 11 12 13 13 14 14 13 13 13 13 13 13 13 13 13 13
22 21 18 16 16 17 19 21 22 24 25 20 16 17 19 19 22 24 25 24 22 23 25 27 27 26 22 20 22 23 21 21 28 31 29 26 22 21 22 22 19 15 14 14 15 15 14 12 11 10 11 13 13 12 12 12 13 14 15 15 15 15 15 14 14 14 14 15 15 14 13 13 14 13 11 11 10 10 9 9 10 12 13 13 13 12 12 12 12 12 12 13 14 14 14 14 14
20 18 17 18 18 18 18 18 18 19 19 17 16 19 21 23 26 28 28 25 21 21 23 25 24 22 22 23 23 23 22 24 29 30 28 26 20 18 21 22 19 15 12 11 11 13 12 11 11 12 13 12 10 11 11 11 13 15 16 17 17 16 15 15 14 14 14 15 16 15 14 13 10 8 8 8 8 9 9 11 12 13 13 12 12 11 11 11 11 11 12 12 13 14 14 15 15
17 17 18 19 20 21 18 15 16 16 16 15 17 20 22 23 27 28 28 26 21 19 20 23 24 22 22 24 24 24 25 27 29 27 26 25 21 19 20 19 18 16 15 15 14 13 13 14 15 16 16 15 13 11 10 11 14 16 17 19 19 17 16 16 16 16 16 17 17 17 15 11 8 7 8 8 8 8 9 11 12 12 11 11 11 11 10 10 10 10 11 11 12 13 13 14 15
15 18 20 20 20 21 20 17 17 18 19 18 18 20 22 24 26 26 25 26 25 23 20 22 25 23 22 24 25 25 27 28 27 25 25 24 21 19 19 18 17 17 18 19 19 17 15 14 15 15 15 16 14 12 12 13 15 17 18 19 18 19 19 19 18 18 18 18 18 18 15 11 9 8 9 8 7 7 8 9 9 9 9 10 10 10 10 10 10 11 11 11 11 12 13 14 15
17 18 18 18 18 19 19 18 18 20 20 20 20 22 23 24 27 27 25 25 25 26 26 26 27 25 23 24 25 26 27 24 22 22 23 22 19 16 17 18 18 18 17 19 21 18 14 12 13 14 15 15 15 15 15 16 17 18 19 19 18 19 20 20 21 21 21 22 22 20 15 12 10 9 9 8 8 7 7 8 8 9 9 10 11 11 11 12 12 12 13 13 13 13 14 15 15
18 17 17 18 18 18 18 18 19 20 20 20 21 21 19 19 24 27 26 25 26 28 31 30 28 26 25 23 23 26 26 22 21 21 20 19 16 16 18 19 18 19 19 20 20 16 13 12 14 15 16 17 17 16 16 16 17 18 17 18 16 15 17 19 22 25 26 26 24 20 15 13 11 10 10 9 9 8 8 8 9 9 10 11 12 13 13 13 13 14 14 15 15 15 16 16 17
18 15 18 22 23 21 20 21 20 18 18 21 22 19 16 17 22 25 25 26 28 30 30 29 27 27 27 24 23 25 25 22 22 20 18 18 18 20 21 20 19 20 21 21 19 16 16 17 17 18 19 19 19 19 18 18 18 18 17 16 16 17 19 22 25 27 27 26 22 18 15 14 12 11 11 11 11 9 9 9 9 10 11 12 13 14 14 14 15 15 15 16 16 16 17 17 17
21 18 19 23 26 26 23 22 22 18 15 17 18 17 19 23 24 24 24 24 26 27 26 27 27 27 28 28 28 29 29 25 22 20 19 19 20 22 24 24 23 23 23 23 21 22 23 20 19 20 21 21 21 23 23 23 22 20 18 18 19 20 23 25 27 26 24 22 20 18 17 15 13 13 13 13 12 12 10 10 10 11 12 13 14 15 16 16 16 16 16 16 16 16 16 16 17
23 23 23 22 23 25 24 22 22 21 18 16 17 18 23 27 26 25 25 25 25 24 23 22 23 24 27 28 27 28 28 24 21 21 21 22 23 24 25 25 25 25 26 26 27 27 25 22 21 20 20 21 22 23 24 26 26 23 22 22 24 25 26 26 25 22 21 21 21 20 18 15 14 14 14 14 14 14 12 11 11 11 12 14 15 16 17 16 15 14 14 14 15 16 16 17 17
20 20 23 22 20 23 26 25 24 24 23 21 19 21 25 26 26 27 26 26 26 25 24 23 22 22 24 25 25 25 26 23 21 22 24 25 25 25 26 27 27 27 28 30 30 27 25 25 24 22 21 22 22 22 23 24 24 23 24 26 27 28 27 24 21 20 20 22 22 21 19 16 16 16 16 16 16 15 13 13 12 13 14 15 16 16 16 15 14 13 12 13 15 16 17 17 18
Wind_Direction
264 262 261 259 258 257 257 257 258 259 258 261 261 261 260 255 251 246 246 243 242 241 244 250 255 257 259 259 254 260 262 256 253 250 254 260 264 273 275 263 260 265 268 268 270 274 279 283 286 290 292 293 292 294 298 302 304 303 302 299 299 299 300 301 302 302 299 298 295 293 291 290 289 287 288 296 304 306 308 314 316 315 312 307 303 301 300 298 294 290 284 279 276 272 269 265 263
263 261 260 258 257 257 257 256 257 258 256 259 260 262 262 255 249 230 241 251 252 252 249 252 254 255 262 258 257 262 259 257 254 252 255 257 260 265 266 261 263 266 268 271 273 277 282 286 289 291 291 292 292 296 299 301 301 299 298 297 297 298 299 299 299 298 296 295 293 291 290 289 287 285 284 289 298 303 306 311 313 312 308 304 301 301 301 300 294 289 283 277 275 273 269 265 264
262 260 259 258 257 257 257 256 256 257 256 255 256 261 260 238 233 231 236 241 249 258 257 256 257 256 264 258 254 261 259 257 256 255 254 254 257 259 261 263 266 267 269 272 275 280 285 288 290 290 290 290 293 297 298 298 297 296 296 295 295 296 296 296 296 295 294 292 290 289 288 288 286 283 282 284 292 299 303 308 310 307 303 301 300 301 302 300 295 288 282 278 275 273 270 265 264
263 260 258 258 257 257 256 256 256 256 256 254 261 302 300 245 231 238 242 242 247 259 261 258 260 259 262 257 255 262 262 254 251 252 253 254 254 256 260 263 266 269 271 274 278 283 287 288 289 288 288 291 294 296 296 296 294 294 293 293 293 292 292 293 295 294 292 291 288 286 286 288 286 284 282 280 287 295 301 305 306 303 299 298 299 300 301 299 295 288 282 279 276 273 270 266 264
262 260 258 257 256 256 257 257 256 256 258 253 231 30 307 264 243 243 246 249 252 256 257 259 264 263 258 259 260 260 260 255 252 252 252 254 254 256 259 263 268 271 274 277 281 285 287 287 286 286 289 292 295 295 294 293 293 292 290 290 290 290 291 293 293 292 291 289 285 284 285 288 286 285 280 274 282 291 296 298 300 302 301 298 299 300 300 298 294 288 281 279 277 274 270 267 263
262 261 258 257 256 256 257 256 256 255 256 250 203 174 209 225 232 243 251 255 253 253 255 259 261 259 255 256 257 253 255 255 252 251 252 253 254 256 259 264 270 274 278 281 284 285 285 284 284 288 292 294 293 293 292 291 290 290 289 289 289 291 293 294 292 290 289 286 283 283 285 287 286 285 276 269 279 288 288 289 294 301 304 303 303 301 299 297 293 287 282 279 278 275 271 268 262
262 261 259 257 256 255 256 254 256 253 247 241 208 190 206 220 232 245 255 260 255 257 258 253 254 253 251 252 252 250 250 252 251 251 252 254 257 261 264 268 272 276 279 282 285 285 283 284 287 291 292 291 291 290 289 289 289 288 289 290 291 293 295 294 291 288 286 284 282 282 284 284 284 282 274 270 279 284 282 285 291 296 301 302 303 302 300 297 294 289 283 279 276 275 271 266 262
260 260 259 257 257 255 255 254 254 252 243 223 202 205 227 230 241 250 252 258 261 268 263 251 251 249 247 248 249 250 249 250 251 252 253 256 260 264 268 271 275 277 279 282 283 282 283 287 289 290 288 288 288 287 287 287 288 290 291 292 293 294 295 293 289 287 284 283 282 281 282 282 280 278 275 276 280 280 279 283 288 291 294 297 299 302 302 300 295 289 283 278 275 274 272 266 262
258 258 257 256 256 254 253 253 252 253 244 219 201 217 239 242 246 249 251 259 266 277 271 259 254 247 245 247 249 250 250 249 248 251 253 257 261 265 270 274 277 278 279 280 280 281 285 287 287 286 286 287 286 285 285 287 290 293 294 293 294 294 293 290 287 284 282 281 280 280 281 281 279 277 277 277 278 278 279 282 284 286 291 294 297 302 304 302 296 289 285 281 277 275 273 269 263
255 255 255 254 254 254 253 253 252 250 238 228 223 227 236 248 251 249 258 265 266 270 267 262 258 251 247 248 250 252 251 250 250 252 254 259 264 267 271 275 278 279 279 280 281 284 286 285 284 285 284 284 283 285 287 291 293 295 294 292 293 291 289 287 284 280 279 278 277 278 279 280 280 278 277 276 278 279 280 281 281 285 289 291 295 300 301 300 296 289 285 283 281 280 277 273 267
253 252 253 253 252 252 250 250 249 249 242 224 232 243 242 250 258 257 261 261 260 263 260 259 260 257 254 248 248 252 253 254 253 253 257 263 267 270 274 277 279 280 281 282 284 283 282 282 282 281 281 282 284 287 290 293 294 293 291 290 289 286 285 283 279 276 275 274 273 274 275 278 278 277 276 278 280 282 281 279 279 282 283 286 291 294 295 296 292 287 283 283 283 282 278 274 270
251 251 250 251 250 248 246 243 239 278 304 274 234 250 254 254 261 262 257 254 252 256 257 256 255 252 251 249 248 251 252 254 255 256 260 264 268 274 277 280 282 282 282 282 281 280 280 279 280 281 281 283 287 289 291 291 289 287 285 283 283 283 282 277 274 274 272 272 273 273 274 278 280 279 280 281 280 281 281 278 276 272 271 278 284 287 290 290 287 283 280 280 280 277 274 271 268
249 250 248 247 246 242 238 228 193 235 281 269 248 255 261 260 264 256 250 251 248 251 254 253 253 252 249 246 249 250 250 252 254 257 260 265 272 278 280 283 282 280 279 278 277 277 279 280 281 281 282 283 288 290 287 284 283 282 279 277 279 281 277 275 275 274 274 274 274 273 275 278 278 278 280 280 278 277 277 274 269 263 262 267 275 283 287 287 286 284 279 276 274 270 267 265 264
247 247 245 243 240 235 231 214 183 214 227 237 251 259 262 263 262 248 244 245 249 252 246 251 254 251 247 245 247 247 248 252 253 255 260 270 277 279 282 282 277 275 274 273 275 276 277 278 279 280 282 285 289 290 283 280 283 281 278 278 280 281 277 277 278 277 276 273 272 272 273 274 274 273 275 276 275 273 271 269 267 264 264 267 276 284 285 285 284 283 279 272 267 263 261 261 259
244 244 243 241 238 231 225 214 194 204 231 241 247 257 261 263 259 248 246 245 250 245 224 244 253 242 241 242 243 243 247 249 251 255 265 274 276 277 279 275 272 272 272 272 273 275 277 277 279 281 285 289 290 284 278 282 284 282 282 280 280 278 278 279 280 279 278 275 274 273 271 271 271 271 271 271 271 270 269 270 271 270 270 274 280 283 282 280 279 279 277 271 263 260 258 257 256
241 241 242 240 238 232 222 217 205 199 221 242 240 248 258 263 262 247 244 239 225 235 235 241 245 237 237 238 240 242 245 246 250 259 267 270 269 271 271 269 269 270 272 274 276 278 280 281 280 284 289 290 286 279 279 285 284 285 283 277 277 275 275 277 275 277 279 278 276 273 269 268 269 269 268 268 268 270 274 276 275 273 275 279 280 278 276 274 274 275 274 271 263 259 257 255 253
239 239 240 239 235 228 215 204 230 224 229 255 245 244 251 257 261 245 239 235 220 235 244 242 242 237 236 236 237 236 239 245 251 257 262 264 265 266 265 266 265 268 273 277 283 285 283 285 287 290 293 289 284 283 285 288 288 288 280 274 277 271 269 269 266 271 275 274 273 274 271 268 267 268 266 264 267 274 279 278 275 277 283 283 280 276 273 272 273 273 272 271 265 259 256 255 252
237 239 238 236 229 214 198 169 247 237 222 248 247 246 248 250 261 249 231 235 232 239 243 242 243 236 234 232 233 235 236 245 250 254 261 263 262 260 260 262 262 267 277 284 286 286 290 293 295 294 293 291 289 292 296 296 294 289 280 279 279 273 269 266 265 267 266 264 268 275 277 272 268 265 263 262 268 275 276 276 279 287 292 289 284 278 275 274 273 272 271 270 268 262 257 255 253
234 237 235 230 224 202 174 162 243 232 219 233 243 250 252 244 252 251 228 232 234 240 243 242 241 235 234 231 233 238 238 244 250 254 258 257 255 253 254 260 267 275 283 288 284 285 294 294 292 293 292 293 293 295 297 294 289 284 281 281 280 276 272 266 265 262 260 262 267 275 279 274 267 263 261 261 264 267 270 277 284 290 292 290 285 281 278 276 273 271 270 269 268 264 259 256 256
231 233 233 226 216 191 169 203 228 223 220 228 240 251 257 247 247 248 235 234 234 241 243 239 236 232 233 234 236 238 240 243 249 252 251 249 249 250 254 263 273 284 286 285 283 286 292 290 292 297 296 291 290 293 290 284 280 278 278 278 276 274 272 268 266 261 263 268 272 277 278 271 268 268 265 260 261 267 277 282 284 286 287 287 285 282 280 278 275 270 268 269 267 264 262 260 259
229 231 232 219 202 186 179 229 229 224 223 227 238 250 261 248 241 240 236 232 234 239 241 238 233 231 230 231 233 235 237 239 244 245 243 244 248 254 261 272 278 282 283 284 285 287 290 292 295 300 300 294 296 300 293 283 281 280 279 278 275 273 274 272 266 264 268 270 275 279 276 270 268 266 262 265 273 278 281 283 285 286 286 286 284 281 279 276 272 268 270 267 262 262 262 261 260
228 230 229 212 194 184 200 241 237 230 229 232 240 248 252 245 235 232 233 231 235 236 239 240 232 231 230 226 229 230 227 233 241 239 242 249 258 266 270 273 276 277 278 281 285 286 289 293 295 297 297 295 302 305 299 290 284 281 278 275 276 276 274 269 264 263 264 266 271 274 269 262 255 256 263 277 287 288 289 290 290 288 287 282 278 279 279 277 273 274 277 270 265 263 258 255 254
226 225 221 211 203 201 206 223 237 237 235 240 244 243 243 245 242 234 230 228 236 235 232 234 231 232 230 231 233 225 225 234 239 237 245 262 265 267 270 269 272 279 280 279 283 286 288 292 297 296 292 292 297 299 298 296 290 286 281 275 277 269 256 260 265 266 265 266 270 273 267 251 243 258 278 295 303 303 303 299 292 288 286 279 276 278 283 288 283 280 280 277 277 270 260 251 246
224 223 216 208 211 218 217 219 238 247 243 242 238 235 238 242 245 241 232 226 233 236 229 227 232 235 233 237 231 220 230 238 235 238 246 257 261 260 264 271 275 278 280 282 286 287 287 291 295 292 288 288 290 292 296 299 296 292 282 275 271 251 246 260 266 269 274 278 278 279 273 258 260 277 292 302 306 305 305 299 292 289 288 285 284 285 288 295 290 281 275 274 278 273 267 254 241
224 221 217 214 213 224 232 231 242 251 244 235 233 232 236 234 232 235 228 221 229 237 237 235 232 231 234 237 235 231 236 239 236 242 247 250 259 260 262 269 272 271 276 280 283 284 284 288 291 290 289 284 283 288 295 296 291 285 273 265 259 248 256 269 263 264 274 281 280 276 277 275 281 292 300 303 304 304 302 297 297 298 298 295 293 290 289 290 287 281 273 268 268 269 267 251 239
226 221 220 222 217 222 233 235 240 249 243 234 233 230 231 226 224 230 224 216 224 231 236 239 231 223 228 235 243 244 239 237 243 248 249 253 259 261 261 261 263 268 274 276 276 277 280 286 289 290 288 283 285 290 292 287 280 273 260 250 248 251 263 270 263 267 277 278 276 281 290 293 292 298 305 308 307 304 299 298 303 307 311 308 296 291 290 287 283 278 271 263 260 263 256 237 232
227 226 225 223 222 225 234 238 239 247 246 238 235 230 227 224 227 231 224 225 226 223 228 234 234 229 229 238 245 247 241 240 255 262 259 260 261 262 262 259 263 269 272 274 273 276 281 284 287 285 274 276 287 289 282 275 270 263 251 242 247 259 267 268 267 273 280 277 281 291 294 297 298 301 308 312 309 303 301 303 307 314 317 308 297 296 298 294 288 277 272 270 267 269 255 233 223
227 229 227 222 225 228 234 239 238 242 246 242 237 232 228 227 232 231 221 232 230 218 225 230 234 237 233 236 241 243 243 246 260 269 264 263 264 265 266 265 268 269 268 270 271 277 285 283 284 282 271 276 284 281 274 269 263 258 251 246 245 253 258 259 264 269 273 279 290 298 297 301 305 302 309 312 308 307 308 310 314 315 310 303 300 305 309 307 301 283 277 278 275 271 255 244 236
230 233 232 226 229 232 235 240 238 240 245 246 242 234 231 231 233 233 219 233 238 223 225 231 232 239 237 236 243 249 253 253 257 262 262 262 264 267 269 270 270 267 267 271 272 277 287 283 278 277 276 284 282 272 267 261 253 248 243 239 237 240 247 252 260 268 278 289 294 295 299 310 311 305 309 310 307 307 307 307 308 306 305 308 311 313 317 314 306 292 286 281 271 266 251 250 251
233 237 238 234 233 234 238 242 240 241 244 246 247 238 233 235 234 234 216 221 233 222 223 230 230 234 237 239 245 251 256 256 256 259 261 262 263 266 268 268 267 266 268 276 280 280 282 277 270 269 274 284 277 258 250 252 246 236 230 231 233 236 242 250 261 273 285 291 286 288 299 307 303 299 305 309 309 306 302 300 302 302 305 310 314 317 319 312 308 307 305 293 277 271 255 252 254
236 238 239 238 236 236 239 242 240 241 245 245 248 243 236 236 234 230 219 223 227 220 224 225 227 233 234 237 242 250 257 257 258 260 259 259 261 264 265 265 265 266 270 279 286 280 271 266 261 263 269 273 266 249 239 238 234 230 230 231 234 237 242 250 261 273 275 272 272 282 292 291 290 294 302 306 304 303 300 298 299 301 302 305 309 318 320 315 316 318 318 312 291 273 258 258 255
239 239 240 239 238 237 237 241 240 237 242 246 246 244 237 234 234 224 226 240 240 231 235 227 225 232 231 234 240 247 255 256 256 257 256 258 260 261 264 263 263 266 272 277 276 269 261 257 257 263 268 267 258 247 238 230 229 234 235 232 238 243 243 248 257 263 261 260 267 274 276 278 282 288 294 297 295 297 299 299 299 300 301 302 306 316 322 322 321 317 316 316 297 269 259 257 253
239 238 239 240 238 236 234 238 246 242 239 244 245 240 236 232 229 223 239 256 249 232 237 234 229 230 230 236 239 243 251 253 255 256 256 258 259 261 262 262 264 270 277 273 265 260 254 251 255 260 265 263 255 246 238 231 230 236 240 242 248 249 245 248 254 256 256 259 264 266 268 272 275 279 282 285 288 291 294 296 299 301 302 302 304 311 316 317 315 309 309 308 294 277 267 261 260
239 238 238 239 238 239 232 221 244 250 234 235 246 240 227 212 197 208 250 259 252 236 232 234 236 231 230 238 242 248 253 254 256 256 257 257 259 261 259 262 270 278 278 270 262 258 251 248 248 245 247 253 252 244 236 227 221 225 238 247 247 245 244 248 251 252 257 261 263 266 268 270 272 274 276 278 282 285 289 293 298 302 302 299 301 304 305 306 305 298 299 301 293 288 275 263 270
240 244 243 240 235 237 228 195 227 251 238 229 246 241 218 197 189 167 216 241 244 236 225 233 241 233 233 242 244 251 255 254 256 256 257 255 256 258 258 263 273 280 273 265 262 259 251 246 243 242 244 247 249 246 242 234 224 225 238 242 238 238 240 242 245 248 253 258 262 265 267 269 271 272 274 276 279 282 287 292 297 302 300 297 298 299 298 296 295 290 290 290 280 277 268 257 268
230 249 255 250 239 233 221 185 215 251 253 250 250 239 214 198 196 174 188 213 229 226 214 227 244 236 237 247 247 250 253 252 253 254 254 253 252 255 259 264 272 276 271 266 264 258 252 246 239 241 246 248 246 242 240 240 241 243 243 240 237 236 236 236 240 246 252 257 260 263 266 270 273 276 280 281 282 283 286 291 296 300 299 299 298 297 296 293 291 289 287 284 275 267 264 259 258
196 218 237 254 248 228 217 196 212 248 254 258 255 233 211 207 207 201 205 214 225 235 226 224 243 248 248 250 246 247 251 250 251 253 252 250 251 255 260 265 270 272 270 268 264 259 257 250 240 240 245 246 237 232 236 240 241 242 240 239 239 235 233 236 243 250 257 260 261 264 268 272 278 283 287 286 286 286 289 293 297 299 300 301 299 295 295 292 290 289 288 286 282 275 272 269 258
198 202 198 233 245 218 212 207 208 245 250 249 253 232 209 214 216 210 222 230 229 233 236 231 243 255 255 252 245 243 250 250 251 252 250 251 255 259 263 266 269 269 268 267 262 259 258 253 246 244 244 241 232 231 239 239 236 236 236 237 237 235 237 243 250 256 260 262 263 266 269 276 283 287 287 286 286 288 291 297 299 302 304 301 301 299 296 291 288 287 285 283 283 280 272 266 260
208 199 180 195 231 214 209 211 201 234 245 228 235 241 221 220 223 216 224 241 241 232 230 238 248 253 254 255 251 247 250 250 249 250 252 259 264 262 263 267 268 266 265 265 261 257 254 252 250 247 242 237 232 234 238 234 231 230 231 233 235 239 245 248 253 257 259 261 263 268 274 281 287 288 289 288 289 292 295 298 299 303 307 301 301 303 299 295 289 284 280 278 279 277 273 269 268
222 210 199 192 204 205 208 216 211 227 240 226 216 237 233 221 224 229 222 226 251 247 230 234 245 250 253 256 256 253 250 248 247 252 258 265 265 262 263 265 264 261 263 263 260 255 252 251 249 247 241 237 237 239 238 233 228 225 224 229 233 237 242 246 251 254 255 259 262 269 276 282 286 288 290 293 294 296 296 297 298 301 303 300 299 301 300 298 293 286 280 275 271 268 268 270 271
228 220 226 210 178 190 216 222 222 229 240 240 232 233 237 224 220 236 230 214 236 249 237 234 243 250 251 253 256 253 249 250 251 257 266 266 265 263 260 260 258 258 259 259 259 258 254 251 252 249 244 243 242 241 243 239 231 226 224 226 229 232 238 245 249 250 252 256 261 268 274 278 283 285 290 296 299 301 299 297 296 295 295 295 298 300 301 300 298 295 287 277 271 266 264 264 264
223 219 229 216 178 178 210 228 233 231 236 244 245 238 236 230 223 235 236 221 229 245 254 252 248 251 250 250 255 253 251 257 260 266 270 267 264 260 256 255 255 256 257 258 261 260 252 252 257 254 251 250 244 243 247 240 235 233 226 223 228 231 236 242 245 248 251 256 261 266 271 274 279 285 292 297 300 301 298 295 290 286 285 285 291 299 304 303 300 297 293 288 282 276 270 265 262
221 216 219 216 202 189 187 222 245 240 238 246 252 240 230 233 240 246 241 236 243 251 255 253 248 251 252 252 254 254 253 258 262 266 265 260 258 256 253 250 250 256 259 259 261 257 247 249 258 256 254 253 247 248 245 234 237 239 226 223 231 232 235 240 244 248 253 259 264 266 267 271 278 287 294 297 300 301 299 295 288 281 278 278 281 290 299 304 303 297 293 291 286 281 277 271 265
218 213 214 213 218 207 186 203 242 244 238 243 249 242 229 232 241 245 239 239 248 249 247 247 246 249 251 252 254 254 254 256 257 257 253 248 249 251 252 250 249 253 256 255 255 254 248 250 258 256 254 255 250 249 244 239 240 226 216 233 247 240 239 243 246 252 255 259 264 266 268 272 281 289 295 299 301 302 303 302 298 293 287 284 282 284 289 295 298 297 293 287 283 279 277 272 267
210 200 205 217 222 217 201 201 223 238 231 233 241 245 239 230 224 231 237 240 246 247 246 245 243 247 249 251 255 256 254 251 247 242 237 236 242 246 251 254 250 246 247 247 248 252 253 256 261 259 262 259 246 241 243 245 232 212 222 271 268 247 245 248 251 254 256 260 263 267 271 275 283 290 294 298 300 301 301 301 301 301 298 296 293 291 290 290 291 292 289 283 278 275 274 272 270
210 203 199 216 221 217 215 215 219 236 238 232 234 238 237 227 220 232 241 244 248 251 250 245 241 245 248 252 257 255 249 243 237 232 229 233 239 243 251 255 250 245 246 246 248 255 256 258 261 264 265 243 219 223 233 238 234 231 252 281 277 258 254 252 254 256 258 262 265 269 275 279 284 289 293 297 299 300 300 300 301 301 299 297 296 297 298 296 294 292 288 284 278 275 275 277 278
209 212 208 213 216 214 221 225 225 234 240 237 233 232 233 225 223 237 244 246 251 256 253 248 243 242 246 252 257 254 246 238 234 232 232 236 238 242 251 254 251 248 245 247 256 258 258 263 264 258 243 220 218 231 231 237 247 250 261 271 273 274 265 254 251 255 260 265 269 274 278 282 286 290 294 295 296 297 299 303 308 311 311 305 299 297 299 300 299 297 294 292 287 282 279 280 281
207 214 213 212 211 211 219 226 228 230 235 238 234 233 239 230 224 240 246 241 244 249 246 245 242 241 245 249 253 254 246 235 234 235 235 235 237 243 250 254 258 260 259 263 265 258 259 268 262 244 234 242 256 257 250 255 258 260 267 267 266 271 270 257 247 250 258 264 270 274 277 285 292 295 293 290 289 290 291 298 308 315 318 317 310 302 298 299 301 301 301 298 295 291 286 283 282
213 217 211 204 206 213 217 222 228 233 237 238 228 227 239 233 223 233 240 235 239 245 241 241 245 247 248 246 247 248 243 234 234 237 238 238 242 247 251 259 269 270 265 268 269 260 255 253 245 242 253 262 264 262 264 262 258 265 271 267 267 270 267 257 250 251 257 264 271 275 282 293 296 293 287 283 281 280 283 288 297 304 308 310 310 306 301 300 302 304 305 304 301 297 294 290 286
216 216 209 203 207 213 214 220 227 234 238 236 231 227 229 231 227 227 231 232 241 250 243 239 244 246 245 245 241 237 235 233 234 239 241 240 244 249 253 263 272 269 268 277 283 273 256 242 247 266 279 281 276 272 270 264 265 272 272 269 270 267 261 256 254 254 258 268 276 280 288 293 287 280 281 278 273 274 278 284 291 297 300 301 302 303 302 301 302 304 305 306 303 300 297 295 292
221 211 207 211 215 215 215 218 220 227 234 229 232 231 221 223 229 229 229 230 234 243 243 241 242 241 244 247 241 233 230 228 229 237 239 237 243 253 256 264 271 271 276 288 296 291 274 267 274 284 290 294 293 287 281 282 284 282 278 274 267 259 256 254 253 256 263 273 278 281 285 277 263 271 279 276 274 276 281 288 295 297 297 297 297 299 300 300 301 302 304 305 305 302 299 296 294
222 214 208 212 219 220 219 217 214 221 228 221 221 228 221 218 228 234 234 235 236 239 241 244 246 244 242 238 233 232 231 227 226 233 238 239 242 250 258 268 276 279 281 287 295 300 295 288 293 299 300 298 294 287 286 288 290 286 280 273 266 260 257 254 253 255 264 275 282 285 276 255 250 269 274 274 280 283 284 291 296 296 294 294 293 293 294 295 297 300 302 304 303 303 301 298 296
219 220 218 219 222 225 225 224 221 221 227 225 224 232 232 228 233 237 236 237 242 243 240 242 245 245 240 232 228 233 236 233 232 234 238 239 237 247 262 268 276 285 288 290 292 296 301 298 300 305 303 298 292 285 284 285 292 291 277 266 265 262 258 257 254 254 263 275 283 281 264 242 248 265 268 275 281 279 280 284 287 288 288 287 286 286 287 289 293 296 299 301 301 301 300 298 296
211 214 217 219 222 228 232 231 229 226 226 226 227 234 240 239 240 240 237 234 237 241 242 242 242 247 249 241 233 238 241 240 239 237 241 247 247 257 267 268 276 280 280 288 289 287 294 294 290 294 294 291 287 286 288 289 297 299 281 263 259 257 259 263 260 260 266 273 276 269 246 234 247 257 261 271 275 275 273 273 275 278 279 280 280 282 284 286 288 291 294 296 297 298 297 296 294
206 212 215 213 212 217 225 228 228 229 228 225 226 237 251 254 250 245 240 234 232 235 241 245 246 247 249 244 240 245 246 241 240 243 252 259 258 262 267 271 280 280 277 283 283 281 291 290 284 289 291 286 282 284 289 292 297 301 287 266 258 259 265 268 266 265 266 267 265 249 230 232 245 251 258 264 267 267 266 264 268 269 271 275 278 281 283 284 284 286 289 291 292 294 294 294 293
211 217 217 214 214 216 221 227 226 227 233 227 221 231 244 249 252 252 250 246 242 244 247 248 245 240 239 242 244 244 241 237 243 255 264 266 263 265 266 269 276 280 279 281 279 282 290 288 282 287 289 285 281 281 283 286 289 290 282 270 266 269 271 269 267 264 260 256 248 233 229 238 246 250 257 262 262 263 261 258 258 260 265 271 276 279 279 280 281 284 287 290 292 293 293 293 293
219 223 219 215 219 224 225 227 225 222 226 228 220 225 236 241 246 252 256 258 258 259 257 250 243 237 236 238 238 236 236 240 252 262 266 266 265 265 266 269 274 277 279 281 282 286 292 292 287 287 286 284 284 283 281 281 280 279 276 272 270 272 275 271 262 255 248 241 233 231 235 243 248 254 259 262 264 263 258 253 252 257 264 269 272 274 275 277 280 284 288 291 292 292 292 293 293
221 228 232 227 223 229 230 230 232 227 224 226 223 225 233 239 246 251 254 258 258 257 258 260 259 253 247 241 239 243 248 252 258 261 264 267 267 265 266 269 272 274 277 282 285 289 292 292 290 288 285 284 285 286 285 281 278 273 272 272 270 270 271 262 249 241 238 233 231 236 243 248 251 254 256 258 260 259 255 254 255 259 263 266 267 270 273 276 278 281 284 287 288 289 289 290 292